Weather History for Benson, MN

Change the Weather History Date:

Saturday, January 5, 2013

  Actual Average Record
Temperature  
Mean Temperature 8 °F -  
Max Temperature 17 °F 18 °F 60 °F (2012)
Min Temperature -2 °F 1 °F -23 °F (1960)
Degree Days  
Heating Degree Days 58    
Moisture  
Dew Point 5 °F    
Average Humidity 86    
Maximum Humidity 92    
Minimum Humidity 73    
Precipitation  
Precipitation 0.00 in - - ()
Sea Level Pressure  
Sea Level Pressure 29.97 in    
Wind  
Wind Speed 6 mph (North)    
Max Wind Speed 22 mph    
Max Gust Speed 29 mph    
Visibility 9 miles    
Events Snow    
Averages and records for this station are not official NWS values.
T = Trace of Precipitation, MM = Missing Value Source: NWS Daily Summary

Daily Weather History Graph

Daily Weather History Graph

Search for Another Location

Airport:

Trip Planner

Search our weather history database for the weather conditions in past years. The results will help you decide how hot, cold, wet, or windy it might be!

Date:

Astronomy

Jan. 05, 2013 Rise Set
Actual Time 8:01 AM CST 4:54 PM CST
Civil Twilight 7:28 AM CST 5:28 PM CST
Nautical Twilight 6:51 AM CST 6:05 PM CST
Astronomical Twilight 6:15 AM CST 6:41 PM CST
Moon 12:59 AM CST (1/5) 11:53 AM CST (1/5)
Length of Visible Light 10h 00m
Length of Day
8h 52m
Last Quarter, 44% of the Moon is Illuminated
Jan 5
Last Quarter
Jan 11
New
Jan 18
First Quarter
Jan 26
Full
Feb 3
Last Quarter

Hourly Weather History & Observations

Time (CST) Temp. Windchill Dew Point Humidity Pressure Visibility Wind Dir Wind Speed Gust Speed Precip Events Conditions
12:13 AM 8.6 °F -2.6 °F 6.8 °F 92% 30.01 in 10.0 mi South 6.9 mph - N/A   Clear
12:32 AM 10.4 °F - 8.6 °F 92% 30.00 in 10.0 mi Calm Calm - N/A   Clear
12:53 AM 6.8 °F - 3.2 °F 85% 30.00 in 10.0 mi Calm Calm - N/A   Clear
1:13 AM 6.8 °F -2.0 °F 3.2 °F 85% 29.99 in 10.0 mi South 4.6 mph - N/A   Clear
1:32 AM 10.4 °F - 8.6 °F 92% 29.99 in 10.0 mi Calm Calm - N/A   Clear
1:53 AM 1.4 °F - -0.4 °F 92% 30.01 in 10.0 mi Calm Calm - N/A   Clear
2:12 AM 1.4 °F - -0.4 °F 92% 30.00 in 10.0 mi Calm Calm - N/A   Clear
2:33 AM 1.4 °F -6.2 °F -2.2 °F 85% 29.99 in 10.0 mi SE 3.5 mph - N/A   Clear
2:53 AM 3.2 °F -4.2 °F 1.4 °F 92% 29.98 in 10.0 mi South 3.5 mph - N/A   Clear
3:12 AM 6.8 °F - 3.2 °F 85% 29.98 in 10.0 mi Calm Calm - N/A   Clear
3:33 AM 3.2 °F - 1.4 °F 92% 29.98 in 10.0 mi Calm Calm - N/A   Clear
3:53 AM 1.4 °F - -2.2 °F 85% 29.97 in 10.0 mi Calm Calm - N/A   Clear
4:33 AM -0.4 °F - -5.8 °F 78% 29.95 in 10.0 mi Calm Calm - N/A   Clear
4:52 AM -0.4 °F - -4.0 °F 85% 29.94 in 10.0 mi Calm Calm - N/A   Clear
5:12 AM -2.2 °F - -5.8 °F 85% 29.92 in 10.0 mi Calm Calm - N/A   Clear
5:52 AM -0.4 °F - -5.8 °F 78% 29.92 in 10.0 mi Calm Calm - N/A   Clear
6:33 AM 1.4 °F - -2.2 °F 85% 29.92 in 10.0 mi Calm Calm - N/A   Clear
6:52 AM 3.2 °F -4.2 °F 1.4 °F 92% 29.91 in 10.0 mi SSE 3.5 mph - N/A   Clear
7:12 AM 3.2 °F - 1.4 °F 92% 29.91 in 10.0 mi Calm Calm - N/A   Clear
7:33 AM 3.2 °F - 1.4 °F 92% 29.90 in 10.0 mi Calm Calm - N/A   Clear
7:52 AM 3.2 °F - -0.4 °F 85% 29.90 in 10.0 mi Calm Calm - N/A   Clear
8:12 AM 1.4 °F - -2.2 °F 85% 29.91 in 10.0 mi Calm Calm - N/A   Clear
8:33 AM -0.4 °F - -2.2 °F 92% 29.92 in 10.0 mi Calm Calm - N/A   Clear
8:52 AM -0.4 °F - -2.2 °F 92% 29.91 in 10.0 mi Calm Calm - N/A   Clear
9:13 AM 1.4 °F - -2.2 °F 85% 29.91 in 10.0 mi Calm Calm - N/A   Clear
9:32 AM 3.2 °F - -0.4 °F 85% 29.92 in 10.0 mi Calm Calm - N/A   Clear
9:52 AM 3.2 °F - 1.4 °F 92% 29.92 in 10.0 mi Calm Calm - N/A   Clear
10:13 AM 6.8 °F - 5.0 °F 92% 29.92 in 10.0 mi Calm Calm - N/A   Clear
10:52 AM 8.6 °F - 6.8 °F 92% 29.92 in 10.0 mi Calm Calm - N/A   Clear
11:32 AM 10.4 °F 4.0 °F 8.6 °F 92% 29.92 in 10.0 mi North 3.5 mph - N/A   Clear
11:53 AM 12.2 °F - 10.4 °F 92% 29.91 in 10.0 mi Calm Calm - N/A   Clear
12:13 PM 12.2 °F 6.1 °F 10.4 °F 92% 29.90 in 10.0 mi NNW 3.5 mph - N/A   Clear
12:32 PM 14.0 °F 8.2 °F 10.4 °F 86% 29.90 in 10.0 mi NW 3.5 mph - N/A   Clear
12:53 PM 15.8 °F 10.2 °F 10.4 °F 79% 29.89 in 10.0 mi WNW 3.5 mph - N/A   Clear
1:13 PM 15.8 °F 8.6 °F 10.4 °F 79% 29.89 in 10.0 mi NW 4.6 mph - N/A   Clear
1:32 PM 17.6 °F 5.7 °F 12.2 °F 79% 29.89 in 10.0 mi North 10.4 mph - N/A   Clear
1:53 PM 17.6 °F 3.7 °F 12.2 °F 79% 29.89 in 10.0 mi North 13.8 mph 18.4 mph N/A   Clear
2:12 PM 15.8 °F -0.6 °F 10.4 °F 79% 29.89 in 10.0 mi North 18.4 mph - N/A   Clear
2:32 PM 15.8 °F -0.2 °F 10.4 °F 79% 29.89 in 10.0 mi North 17.3 mph - N/A   Clear
2:53 PM 14.0 °F -3.4 °F 8.6 °F 79% 29.90 in 10.0 mi North 19.6 mph 23.0 mph N/A   Clear
3:12 PM 12.2 °F -3.7 °F 8.6 °F 85% 29.90 in 10.0 mi North 15.0 mph 20.7 mph N/A   Mostly Cloudy
3:32 PM 12.2 °F -4.8 °F 8.6 °F 85% 29.91 in 2.5 mi North 17.3 mph - N/A Snow Light Snow
3:53 PM 12.2 °F -4.8 °F 8.6 °F 85% 29.93 in 3.0 mi North 17.3 mph - N/A Snow Light Snow
4:12 PM 10.4 °F -9.1 °F 6.8 °F 85% 29.95 in 2.5 mi North 21.9 mph 26.5 mph N/A Snow Light Snow
4:32 PM 10.4 °F -8.2 °F 6.8 °F 85% 29.96 in 2.5 mi North 19.6 mph 28.8 mph N/A Snow Light Snow
4:53 PM 10.4 °F -8.6 °F 6.8 °F 85% 29.96 in 3.0 mi North 20.7 mph - N/A Snow Light Snow
5:12 PM 10.4 °F -7.2 °F 6.8 °F 85% 29.97 in 4.0 mi North 17.3 mph - N/A Snow Light Snow
5:32 PM 10.4 °F -7.2 °F 8.6 °F 92% 29.99 in 3.0 mi North 17.3 mph 21.9 mph N/A Snow Light Snow
5:53 PM 10.4 °F -7.7 °F 8.6 °F 92% 29.99 in 3.0 mi North 18.4 mph - N/A Snow Light Snow
6:12 PM 12.2 °F -4.8 °F 8.6 °F 85% 29.99 in 5.0 mi North 17.3 mph 23.0 mph N/A Snow Light Snow
6:33 PM 12.2 °F -4.8 °F 8.6 °F 85% 30.01 in 10.0 mi North 17.3 mph 23.0 mph N/A Snow Light Snow
6:53 PM 12.2 °F -3.7 °F 8.6 °F 85% 30.01 in 10.0 mi North 15.0 mph 20.7 mph N/A   Scattered Clouds
7:12 PM 12.2 °F -3.1 °F 8.6 °F 85% 30.02 in 10.0 mi North 13.8 mph - N/A   Scattered Clouds
7:53 PM 12.2 °F -1.8 °F 8.6 °F 85% 30.03 in 10.0 mi North 11.5 mph - N/A   Overcast
8:12 PM 12.2 °F -1.8 °F 8.6 °F 85% 30.04 in 10.0 mi North 11.5 mph - N/A   Mostly Cloudy
8:33 PM 10.4 °F -7.2 °F 8.6 °F 92% 30.05 in 10.0 mi North 17.3 mph - N/A   Scattered Clouds
8:52 PM 10.4 °F -5.4 °F 6.8 °F 85% 30.06 in 10.0 mi North 13.8 mph - N/A   Clear
9:12 PM 10.4 °F -7.2 °F 6.8 °F 85% 30.07 in 10.0 mi North 17.3 mph - N/A   Clear
9:33 PM 10.4 °F -6.6 °F 6.8 °F 85% 30.07 in 10.0 mi North 16.1 mph - N/A   Clear
9:52 PM 10.4 °F -5.4 °F 6.8 °F 85% 30.07 in 10.0 mi North 13.8 mph - N/A   Clear
10:12 PM 8.6 °F -7.7 °F 5.0 °F 85% 30.07 in 10.0 mi North 13.8 mph - N/A   Clear
10:33 PM 8.6 °F -7.7 °F 3.2 °F 79% 30.08 in 10.0 mi North 13.8 mph - N/A   Clear
10:52 PM 8.6 °F -7.7 °F 1.4 °F 73% 30.09 in 10.0 mi North 13.8 mph - N/A   Clear
11:12 PM 8.6 °F -6.3 °F 1.4 °F 73% 30.09 in 10.0 mi North 11.5 mph - N/A   Clear
11:33 PM 6.8 °F -9.3 °F 1.4 °F 79% 30.10 in 10.0 mi North 12.7 mph - N/A   Clear
11:52 PM 8.6 °F -6.3 °F 3.2 °F 79% 30.11 in 10.0 mi North 11.5 mph - N/A   Clear